Theta_e
342 338 335 337 336 335 339 342 344 344 344 343 343 341 339 337 335 334 332 332 333 332 330 331 335 329 322 323 325 322 319 319 321 322 323 325 326 327 327 330 334 335 337 337 337 337 337 338 338 337 337 337 337 335 332 332 333 333 333 334 335 337 336 332 333 336 336 335 335 336 336 336 337 337 336 335 333 332 332 332 331 332 333 332 331
341 336 334 340 339 338 342 344 345 345 345 344 343 341 339 337 335 334 333 332 333 333 331 331 335 331 325 327 328 323 321 323 324 326 326 328 329 330 332 335 337 336 337 336 336 338 338 338 338 337 335 335 336 333 332 331 330 329 330 332 333 333 330 331 334 333 333 333 335 335 335 336 336 336 335 334 332 331 331 332 332 333 333 331 329
339 334 335 342 342 341 344 346 346 346 345 344 343 341 339 336 335 334 333 332 334 334 331 332 334 333 328 329 329 326 324 326 327 328 328 330 333 336 340 342 341 338 338 337 337 338 338 340 339 338 335 335 336 333 333 332 330 328 331 333 331 330 329 331 332 330 329 330 332 334 334 334 334 334 334 333 333 331 331 332 332 332 331 329 329
338 333 337 344 345 343 344 346 346 346 345 344 342 341 338 336 336 334 332 332 334 334 332 333 334 335 333 332 332 328 327 329 329 328 328 330 333 338 342 343 341 339 338 338 337 338 339 340 340 340 336 335 335 333 334 334 330 330 333 333 331 331 331 331 331 330 329 329 328 330 332 333 333 333 333 333 333 332 331 331 331 330 330 330 330
336 333 338 345 346 344 343 345 345 345 344 343 343 341 338 336 336 335 332 332 334 335 333 333 334 337 337 336 334 330 329 329 330 329 330 333 335 339 342 342 340 339 338 338 338 338 339 339 339 340 338 335 334 333 334 333 330 331 333 332 333 333 334 333 332 332 330 330 328 327 328 330 332 333 333 333 332 332 332 331 331 330 330 331 331
334 332 338 344 345 344 343 344 344 344 344 343 343 341 339 337 336 334 333 333 335 335 334 333 335 337 338 338 335 331 330 330 329 329 331 335 336 338 340 340 340 340 340 340 340 339 339 338 337 338 339 337 335 333 332 331 331 332 332 332 333 334 336 336 335 335 333 332 330 329 326 326 330 333 333 333 332 332 332 332 332 331 331 331 331
333 331 336 343 344 343 343 343 343 343 343 342 342 341 341 340 338 335 333 335 336 335 334 334 336 338 339 338 335 332 330 330 330 328 329 333 335 336 339 340 341 341 340 339 338 338 339 338 336 336 338 339 338 335 330 331 332 332 333 333 333 334 336 337 337 338 335 332 332 333 328 324 327 331 333 333 333 333 333 332 332 331 331 331 331
330 330 335 341 342 342 341 341 341 341 342 342 343 342 342 342 341 337 335 336 337 336 334 335 337 339 340 338 335 333 331 330 328 326 328 331 333 336 339 341 341 340 339 338 338 339 339 339 337 334 335 337 337 335 331 330 332 333 333 334 334 334 336 337 338 338 336 332 333 333 328 326 327 329 332 333 333 333 334 333 332 331 331 330 331
336 330 333 339 342 342 339 339 340 341 341 342 341 341 342 342 342 340 338 338 338 336 335 336 337 340 340 337 334 333 332 330 328 327 329 332 333 336 339 341 340 339 338 337 338 339 339 338 337 335 333 332 330 331 331 331 332 333 333 333 333 334 335 335 336 336 337 334 333 332 329 329 329 329 331 333 333 331 332 332 331 331 330 330 330
343 339 335 339 343 341 338 338 339 339 339 340 340 340 341 341 341 340 339 339 338 337 337 338 338 340 341 338 335 334 333 331 330 331 333 335 336 338 339 340 340 338 337 337 337 338 339 337 336 335 332 330 327 327 330 331 332 332 332 332 332 332 333 333 333 335 336 335 334 332 331 331 330 330 329 331 333 331 330 330 331 331 331 330 331
340 344 340 340 342 338 335 334 335 336 338 339 340 340 340 340 340 341 340 340 339 339 339 339 339 340 341 340 338 336 334 332 332 335 337 338 339 340 340 340 340 338 337 336 336 337 337 336 335 334 332 331 327 325 328 330 331 331 330 331 331 332 332 333 335 336 337 335 334 333 331 330 329 329 328 330 332 331 329 331 331 331 331 331 331
332 340 340 338 338 333 329 331 332 336 338 339 339 339 340 340 340 341 340 339 340 340 339 340 340 341 341 341 341 340 339 336 335 337 338 338 338 338 337 337 337 337 337 335 335 335 335 335 334 333 333 331 326 324 326 328 329 329 329 330 330 331 332 334 336 337 337 335 334 332 330 330 329 328 328 329 331 330 329 330 330 330 331 331 330
330 335 338 338 337 332 328 329 332 336 338 338 338 339 339 339 340 340 339 339 339 339 339 340 341 341 341 341 340 340 338 337 335 335 335 335 333 332 332 332 333 335 335 335 335 335 335 335 334 333 331 329 325 323 323 325 326 327 328 329 330 332 333 334 336 336 336 335 332 331 330 329 329 328 328 329 331 331 330 330 330 330 330 330 330
331 332 335 337 338 334 328 330 333 336 337 337 337 338 338 338 338 338 338 337 338 338 338 340 341 341 340 340 338 337 335 335 334 334 334 332 331 330 330 329 330 334 335 334 335 335 335 334 333 332 328 326 326 324 322 322 325 326 328 329 331 333 332 333 335 335 335 333 331 330 330 328 327 325 326 329 331 331 331 331 330 329 330 330 331
332 331 334 337 339 336 331 331 333 335 336 336 337 337 337 336 337 337 337 336 337 338 339 340 340 339 339 338 336 334 333 334 335 334 334 333 333 332 330 327 328 333 336 335 335 335 334 333 332 329 326 327 327 327 325 323 324 325 327 330 333 333 332 334 335 335 334 332 331 330 329 327 326 324 327 331 331 331 331 330 330 329 330 330 330
334 331 334 337 339 338 336 334 332 334 336 335 336 337 336 336 337 337 337 336 336 337 338 338 338 337 336 335 334 334 335 335 335 335 335 335 335 333 331 329 327 331 335 335 334 334 333 332 331 327 326 328 328 328 327 324 324 325 327 331 332 332 333 334 334 334 333 332 331 330 329 327 325 323 326 329 331 330 330 329 329 329 329 329 328
332 332 335 337 338 338 337 335 334 336 336 335 336 336 337 337 337 337 336 335 336 337 337 336 336 335 334 334 335 335 336 336 336 335 335 334 334 333 331 330 327 328 331 333 333 332 332 332 330 327 327 328 327 327 327 326 325 326 329 331 331 332 333 334 334 334 333 332 331 331 329 328 326 324 323 325 329 330 329 329 329 329 329 328 328
332 335 336 337 336 334 333 335 337 337 337 336 336 336 337 337 337 335 333 333 335 335 334 333 332 333 334 334 335 336 336 337 336 335 334 334 334 332 331 329 327 327 328 330 332 331 331 333 331 329 329 328 327 327 328 327 326 327 329 329 329 331 333 334 334 334 333 332 332 331 331 331 329 326 323 321 327 330 329 329 329 329 329 329 328
336 337 334 334 333 329 330 334 336 336 337 338 337 337 337 336 334 332 332 332 333 333 332 331 331 332 334 335 335 336 336 336 336 335 334 333 333 332 331 329 327 329 329 330 332 331 331 333 332 330 330 330 329 327 327 328 327 327 328 328 329 332 333 334 334 333 333 333 332 331 332 331 329 326 323 321 326 330 329 329 328 328 328 329 329
339 336 333 331 329 327 329 332 333 334 336 336 335 335 335 334 333 332 332 332 333 333 332 332 332 333 336 336 336 336 337 337 337 335 334 333 333 332 331 330 329 329 330 331 331 331 330 332 332 330 330 330 330 328 327 327 327 328 327 328 330 331 333 335 334 333 333 332 331 332 331 330 328 326 322 321 326 329 329 328 328 328 328 329 329
339 336 332 329 328 328 328 330 331 332 333 332 331 331 331 331 332 332 332 332 332 333 334 334 334 335 337 336 335 337 336 337 336 335 335 333 332 333 333 332 331 330 330 331 331 330 329 330 331 330 330 330 330 329 327 327 327 327 328 328 329 330 333 336 335 333 333 332 331 331 330 329 327 324 322 322 325 327 328 328 328 328 328 328 328
339 338 334 330 330 329 328 328 329 330 331 330 330 329 329 330 331 332 333 333 333 334 335 335 335 335 336 336 335 336 336 336 335 335 334 332 332 333 334 333 332 332 331 331 331 331 330 330 330 330 330 330 330 329 327 327 327 327 328 328 328 329 333 336 335 333 333 332 331 330 329 328 326 324 322 323 325 325 327 329 328 328 328 327 327
339 339 336 332 331 329 328 328 328 330 330 330 330 329 329 331 332 332 333 333 334 335 335 335 335 335 335 335 335 335 336 336 336 336 334 333 333 333 333 333 332 332 332 332 331 331 330 329 329 330 330 331 330 329 329 327 327 326 327 328 327 328 334 336 334 333 332 332 331 329 328 327 326 325 324 323 324 325 327 328 328 327 327 327 327
340 341 339 335 332 330 329 328 328 328 329 330 330 330 329 331 333 333 333 333 334 335 335 335 335 335 335 334 335 335 336 336 336 338 336 334 333 333 333 332 331 332 331 331 330 330 329 327 327 329 330 330 330 330 329 327 327 326 326 326 325 328 335 336 334 334 333 331 330 329 329 327 327 326 325 324 323 325 328 328 328 327 327 327 327
340 341 342 338 335 333 331 330 329 328 328 329 330 330 330 331 333 333 333 333 333 334 334 335 335 335 335 334 334 335 336 336 336 338 337 335 334 333 333 332 331 330 330 328 327 327 327 325 325 326 328 329 329 329 328 327 327 327 326 326 325 327 334 336 334 334 332 330 329 329 329 327 327 327 327 325 323 327 329 328 328 327 326 326 326
338 339 342 341 338 336 335 333 332 330 329 329 329 330 331 331 332 333 333 333 334 334 334 334 334 335 335 335 334 335 336 336 336 337 337 336 335 334 332 331 330 328 329 327 324 327 329 328 327 326 326 327 327 327 327 327 327 328 328 329 328 328 333 336 335 334 331 330 329 329 328 327 327 326 327 325 325 328 329 328 327 327 325 325 326
338 337 335 337 340 339 337 336 336 334 333 332 331 330 330 330 330 332 333 333 333 334 334 335 334 334 334 335 335 335 335 336 336 337 336 336 336 335 333 331 329 328 329 326 325 330 332 331 330 329 328 327 326 327 328 328 328 329 329 329 330 329 332 335 335 334 331 330 330 329 328 327 326 326 327 327 328 329 329 328 328 327 326 325 326
338 336 331 335 342 342 340 340 338 338 337 337 335 331 330 330 330 331 331 333 333 334 334 334 334 335 335 335 335 335 335 335 336 336 336 336 336 335 333 331 330 329 330 329 328 331 333 331 331 331 331 330 329 329 329 329 329 329 329 328 328 329 332 335 335 335 333 331 330 329 327 327 326 326 327 328 328 328 329 328 328 327 326 326 326
337 335 333 340 343 342 342 342 340 340 340 340 339 336 333 332 332 332 332 333 334 335 335 335 335 336 336 335 335 335 335 336 336 336 335 335 335 334 334 333 332 331 332 331 330 331 332 332 331 331 331 331 331 331 330 328 329 329 328 328 327 328 332 335 335 335 334 331 331 330 327 326 326 326 327 329 329 328 328 327 328 327 326 326 326
338 337 338 343 343 342 343 343 341 341 341 341 341 339 336 335 335 336 336 336 337 337 337 336 335 336 336 335 335 335 336 336 336 336 335 334 334 333 334 334 333 332 332 332 331 331 331 331 332 331 331 331 331 331 330 328 328 328 328 327 327 327 329 333 334 335 334 333 332 331 328 327 326 326 327 328 329 330 328 327 328 327 326 326 325
338 339 340 343 342 342 343 342 342 341 340 341 341 340 338 338 338 338 339 338 338 338 337 336 336 336 336 336 336 336 336 335 335 335 334 334 334 334 334 334 334 333 332 332 333 332 332 331 331 331 330 330 330 329 329 329 327 327 327 327 328 326 327 330 332 334 334 334 333 332 329 327 326 325 326 326 327 330 329 328 328 326 325 325 326
337 339 341 344 343 343 343 342 341 340 340 340 340 340 339 339 339 339 339 338 338 338 337 336 336 336 336 336 336 336 335 335 335 335 334 333 333 334 335 335 334 333 333 332 332 332 332 332 332 331 330 329 329 329 329 328 327 326 326 326 327 326 326 327 330 333 334 334 334 333 331 329 327 326 326 325 327 329 329 329 329 326 325 323 324
337 339 338 342 343 342 342 341 340 339 339 339 338 338 338 338 338 337 337 337 337 336 336 336 336 336 336 336 335 335 335 335 334 335 335 333 332 333 334 334 333 333 333 332 332 332 333 333 333 331 330 330 330 329 328 327 327 326 325 326 327 327 326 326 330 333 333 333 333 333 332 330 328 326 326 326 327 328 329 329 329 327 326 323 323
336 337 336 340 342 340 340 340 339 338 338 338 338 336 336 335 335 335 334 335 336 335 335 336 336 335 336 336 335 335 335 335 334 335 335 332 332 332 333 333 333 333 333 332 332 333 333 333 333 331 331 330 329 328 328 328 328 327 325 325 327 329 328 327 330 333 333 333 333 333 332 331 328 327 327 326 326 327 328 329 328 328 328 325 322
334 335 334 337 341 339 338 338 337 337 337 337 336 336 335 334 333 333 333 334 334 334 335 336 336 335 335 335 335 334 335 335 334 334 333 332 332 333 332 333 333 333 333 333 333 333 333 333 333 332 331 330 329 328 328 327 327 326 324 325 327 329 330 329 330 332 333 333 333 333 333 332 329 328 328 327 326 327 327 328 327 327 329 327 324
333 332 332 335 339 337 337 337 336 336 336 335 334 334 333 333 333 332 332 333 333 333 334 335 336 335 334 334 334 334 334 334 334 333 333 333 332 333 333 333 333 333 333 333 333 333 332 332 332 331 331 331 329 328 328 326 325 323 322 324 327 328 330 330 329 329 330 331 333 333 332 331 330 328 328 328 327 326 327 327 326 325 327 327 326
332 332 331 333 337 336 337 337 336 335 334 334 333 332 332 332 332 330 331 332 332 332 333 334 335 335 333 333 333 333 333 333 332 332 332 332 332 332 332 332 332 332 333 332 332 332 333 332 332 332 332 331 329 329 327 325 325 322 321 324 326 328 329 329 329 328 328 329 332 333 333 332 330 328 328 328 327 327 326 327 326 325 325 326 326
332 332 331 331 335 335 336 335 334 333 331 332 333 332 331 332 331 331 330 331 331 331 332 333 334 333 332 331 331 331 330 330 330 331 331 331 330 330 331 331 330 331 331 331 332 332 333 332 332 332 332 331 330 329 327 325 325 324 322 323 325 326 328 329 329 329 328 329 330 331 332 332 331 330 329 328 328 327 327 327 326 325 324 325 324
331 331 331 332 332 332 333 332 331 331 330 331 332 331 330 331 332 331 331 331 331 330 330 332 332 331 330 329 329 329 329 329 329 329 329 329 328 329 330 330 330 330 330 330 331 332 332 332 332 332 332 331 331 330 328 327 327 326 325 325 324 324 326 328 328 328 328 328 328 329 329 330 330 330 330 329 329 328 328 327 326 325 324 325 325
331 332 332 332 331 331 331 331 331 330 331 331 330 329 329 329 329 330 330 331 330 330 329 329 328 327 327 326 327 327 326 327 326 326 327 328 328 328 328 329 329 330 330 330 331 331 331 331 331 332 332 331 331 330 329 329 329 328 328 327 325 323 324 325 326 326 327 328 328 329 329 328 328 329 330 330 330 329 327 328 326 326 325 325 325
333 333 332 331 330 331 330 330 330 329 330 329 329 329 327 326 326 327 328 330 330 329 327 326 324 325 325 325 326 326 325 325 324 323 324 327 327 327 327 327 329 329 330 330 330 330 331 331 331 331 330 330 330 330 329 329 329 329 329 329 326 324 323 323 324 325 326 327 327 327 328 329 328 328 328 329 329 330 329 328 327 327 326 325 325
335 333 332 332 331 331 330 329 329 328 327 326 325 327 325 325 325 326 327 328 327 326 324 323 323 323 322 322 322 323 325 324 324 323 324 326 325 324 326 326 327 328 329 329 329 330 330 330 330 330 330 329 330 330 329 329 329 329 329 329 329 327 325 323 323 323 323 325 326 326 327 328 328 328 328 328 329 330 330 330 329 327 327 327 326
335 334 333 333 332 331 330 329 329 328 327 324 322 323 323 323 324 324 325 325 323 323 322 321 321 321 320 321 320 321 323 323 323 323 324 325 324 323 324 325 326 326 327 328 328 329 329 329 329 329 329 328 329 329 330 329 329 328 329 330 332 331 329 326 325 324 323 323 324 324 324 326 328 328 328 329 328 329 330 331 331 330 329 329 328
335 335 333 333 332 333 331 329 330 328 326 325 322 322 322 323 324 324 325 323 320 320 320 319 319 320 321 322 322 321 322 322 321 322 323 323 323 323 322 323 326 326 326 327 327 328 328 328 329 329 329 328 328 328 329 329 329 328 329 329 329 330 333 330 328 328 327 326 325 325 326 326 328 328 328 329 329 329 330 331 331 331 331 331 331
335 334 333 333 333 332 331 331 330 328 325 324 323 323 323 323 324 324 323 321 320 319 319 320 321 322 322 322 322 322 321 321 320 320 320 320 321 321 321 322 324 325 326 325 325 325 327 328 328 329 329 328 328 328 329 329 328 328 328 329 329 332 335 332 330 330 330 330 330 329 329 330 329 328 328 328 328 329 330 330 329 330 331 331 332
335 335 333 332 333 332 332 331 329 326 324 325 325 324 322 323 324 323 322 321 321 321 320 321 322 322 322 321 321 322 320 320 320 319 319 319 320 319 319 320 321 322 323 322 322 323 325 327 327 328 328 327 328 329 328 328 328 327 327 328 329 331 332 330 330 332 330 330 331 331 332 331 330 329 329 328 328 329 329 330 330 329 330 330 331
334 335 333 332 332 333 332 329 327 327 327 327 326 324 322 322 323 322 321 320 321 320 320 321 323 322 322 322 321 320 320 320 319 319 319 318 318 318 318 318 319 320 320 320 321 321 323 324 325 326 327 327 328 328 327 326 327 327 328 328 327 327 328 328 330 333 332 330 329 329 330 330 330 330 329 328 327 328 328 329 330 330 331 331 331
335 335 333 332 331 333 334 328 327 329 328 327 325 324 323 322 323 322 320 320 320 320 320 322 323 322 322 321 320 319 319 319 319 319 318 317 317 318 317 316 315 317 318 319 320 321 321 321 323 324 325 326 327 327 326 325 325 325 326 327 326 325 326 327 327 328 332 333 330 329 328 327 328 328 329 329 328 327 327 328 329 330 331 330 330
336 335 333 333 330 333 334 329 329 331 326 324 324 323 323 323 323 321 319 320 320 321 322 323 322 321 320 320 319 319 318 318 318 318 317 316 315 316 315 314 313 314 315 316 317 319 319 319 321 321 322 324 325 324 323 322 323 324 325 325 324 325 326 326 325 325 328 332 332 331 325 322 326 326 326 328 328 328 328 327 327 328 328 329 329
337 336 334 334 332 333 334 329 330 331 325 322 323 323 323 324 322 318 318 320 320 321 322 321 321 320 320 320 320 320 318 316 316 316 316 315 315 315 315 314 314 314 314 314 314 316 317 317 317 319 320 321 321 319 318 317 319 321 324 325 325 325 324 322 323 324 325 326 327 326 319 318 324 325 322 325 326 327 327 327 328 328 326 327 327
336 337 336 335 333 334 334 330 330 331 325 322 323 322 323 322 318 316 319 320 320 321 321 319 320 321 321 321 320 319 317 314 313 313 314 314 315 316 315 315 316 316 316 315 314 315 316 315 315 316 318 318 318 317 316 316 316 317 319 321 320 319 317 316 317 319 320 320 322 320 314 313 319 318 317 320 322 322 323 324 324 323 321 323 323
Wind_Speed
23 23 22 18 18 19 18 21 22 23 24 25 26 25 24 22 21 20 19 19 19 19 19 19 21 20 20 20 20 21 21 22 22 21 21 20 19 19 19 18 18 18 18 17 17 17 18 18 17 16 15 15 14 14 15 14 15 15 16 17 18 18 18 19 21 21 19 18 18 17 17 18 17 17 17 18 17 17 17 17 17 16 15 15 15
24 23 22 17 18 19 20 22 22 23 23 25 25 24 23 22 21 20 19 19 19 19 19 19 20 21 20 19 20 21 21 21 21 21 21 20 19 18 18 18 17 17 18 17 16 16 16 16 15 15 14 14 14 14 14 14 15 16 17 18 18 18 19 20 21 19 18 19 18 17 18 17 16 16 16 17 17 16 16 16 16 15 15 14 14
28 24 20 18 19 19 21 22 22 23 23 24 24 23 22 21 21 20 20 19 19 19 19 19 19 20 19 19 19 20 21 21 21 20 20 20 19 18 18 17 16 17 17 17 16 16 16 16 15 14 14 14 14 14 14 14 16 18 18 18 19 19 21 21 20 19 18 19 18 18 18 17 17 16 16 16 16 15 15 16 15 15 15 14 14
30 25 20 18 18 20 21 22 23 23 23 24 23 22 21 21 21 20 20 19 19 19 19 19 18 18 18 18 18 20 21 21 20 20 19 19 18 17 17 16 17 17 17 17 16 16 16 15 14 14 14 13 12 13 14 15 17 19 18 18 20 20 21 20 20 19 19 18 17 17 17 17 17 16 16 16 16 15 15 15 15 14 14 14 14
30 25 20 19 19 21 22 23 23 23 23 23 23 21 21 21 20 20 20 20 19 19 19 18 17 16 17 18 18 19 20 20 20 19 19 18 17 17 16 16 17 18 17 17 16 16 16 14 14 13 13 12 11 12 14 16 18 19 18 19 20 20 19 19 20 20 19 18 16 15 16 17 18 16 15 15 15 15 14 14 14 14 14 14 14
30 26 22 20 21 22 22 24 23 23 23 22 22 21 21 20 20 20 20 20 19 19 19 18 17 15 15 17 17 18 19 19 19 19 18 17 16 15 14 15 17 18 17 16 16 15 15 14 13 12 12 11 11 11 14 16 18 18 17 17 18 19 18 17 18 18 17 15 15 14 14 16 18 16 14 14 15 14 13 14 14 13 14 14 13
30 27 24 23 22 22 22 23 23 23 23 22 22 21 21 19 19 20 20 20 19 20 19 18 17 15 15 16 17 18 18 18 18 18 17 16 14 14 13 15 17 17 16 15 15 15 13 13 12 11 11 11 10 11 14 17 17 16 15 15 15 17 17 15 13 13 14 12 12 13 13 15 16 16 13 13 14 13 13 14 13 13 13 13 13
29 28 25 25 23 22 23 23 23 23 23 22 22 22 22 20 19 19 20 19 19 20 19 18 17 16 15 16 17 17 17 17 16 16 15 14 13 13 13 14 16 15 14 14 14 14 13 12 11 10 10 10 9 10 14 16 16 15 13 13 13 14 14 13 11 10 12 10 9 10 12 13 13 14 13 12 13 13 13 13 13 12 12 13 12
24 27 26 25 23 22 23 23 23 22 22 22 21 22 22 21 19 19 20 19 20 20 19 18 17 16 16 16 16 16 16 16 15 14 12 12 12 12 13 14 15 14 13 14 14 12 11 11 10 9 8 8 7 9 13 15 15 14 12 11 10 10 10 10 9 9 11 10 8 9 10 12 12 13 13 12 11 11 11 11 12 12 12 12 11
15 20 24 23 22 22 22 22 22 22 21 22 22 21 22 22 20 20 19 19 20 19 19 18 17 16 16 16 16 15 15 15 15 13 12 12 12 13 14 13 14 13 12 13 13 11 10 9 9 8 7 7 7 9 13 14 14 12 11 10 9 8 8 7 6 8 13 12 9 8 9 10 11 11 10 10 11 11 11 12 13 12 12 12 12
16 12 19 21 21 22 22 22 22 22 22 22 22 22 23 22 20 20 19 19 19 18 18 17 17 17 16 16 16 16 15 14 13 12 12 13 13 14 13 11 12 13 12 11 11 10 8 7 6 6 6 6 7 9 12 13 13 11 10 10 9 9 8 6 5 10 15 14 11 9 9 10 10 9 9 10 11 10 11 12 12 12 12 12 11
24 14 14 19 20 22 22 21 22 22 23 23 23 24 23 22 21 20 20 19 19 18 17 17 17 17 16 16 16 15 15 15 13 13 13 13 13 12 11 9 10 11 10 9 9 8 6 4 3 5 6 6 7 9 11 12 12 11 10 10 10 9 9 8 7 12 16 15 12 10 10 10 9 9 8 10 11 10 10 11 11 12 11 11 11
27 19 14 17 19 22 22 21 22 23 24 24 24 25 23 22 21 21 20 19 18 18 17 18 17 17 17 16 16 15 15 15 14 14 13 12 11 10 9 8 8 9 9 9 8 7 5 3 2 4 5 6 7 9 10 12 11 11 11 10 10 9 10 10 10 14 17 15 12 11 11 10 9 8 7 10 12 11 11 11 11 11 11 11 11
28 23 18 18 19 21 22 22 23 24 25 24 24 24 23 22 22 21 20 19 18 18 18 18 18 18 17 17 16 16 15 15 14 13 12 12 11 10 9 8 7 8 8 8 8 6 5 3 3 4 6 8 9 9 9 11 11 11 10 10 10 9 9 9 12 15 15 14 12 12 10 9 8 7 8 11 12 10 10 10 10 10 11 11 10
32 27 22 20 20 20 22 23 23 25 25 25 25 24 23 23 22 21 20 19 19 18 18 18 18 17 16 16 16 16 15 14 13 12 12 11 10 9 9 8 7 9 9 8 8 7 5 4 4 5 8 10 10 9 8 9 10 9 9 9 9 8 8 8 12 15 14 13 13 12 9 8 7 7 10 13 12 10 10 10 10 10 10 9 9
33 30 25 22 21 22 22 22 23 25 25 26 26 24 23 22 22 21 20 19 19 18 18 18 17 16 15 16 16 15 15 14 13 12 11 10 10 9 9 8 7 9 9 8 7 7 6 6 5 7 9 11 10 8 8 8 8 7 8 9 7 6 8 7 13 16 15 13 13 11 9 7 7 7 9 12 12 10 10 10 10 10 9 8 9
31 29 27 24 23 23 23 22 23 24 25 25 25 25 23 22 21 20 19 19 18 18 17 17 16 15 15 15 15 14 13 13 12 11 11 10 10 10 9 8 8 8 9 8 6 6 7 6 6 7 9 9 8 8 7 7 7 6 7 7 5 5 7 7 14 17 15 13 12 10 8 6 5 5 6 10 11 11 10 10 9 9 8 8 9
28 28 27 26 24 24 23 23 23 24 24 23 24 24 24 22 21 20 19 18 18 17 17 17 16 15 15 15 14 13 13 12 11 11 11 11 10 10 10 9 9 8 8 8 6 5 7 6 5 5 6 6 6 7 6 6 7 6 5 5 4 5 7 8 14 16 15 12 11 9 6 5 3 4 4 8 11 11 10 10 10 10 9 9 8
27 28 28 26 25 24 24 24 23 24 24 23 23 23 23 22 21 19 18 17 17 17 16 16 16 15 14 14 13 13 12 12 11 10 10 10 10 10 10 10 9 8 7 7 5 5 5 5 4 4 5 4 5 6 5 5 5 5 5 4 3 5 7 8 14 15 14 12 10 8 6 4 3 3 4 7 11 11 10 10 10 10 9 8 8
26 27 28 26 25 25 24 24 23 24 24 23 23 22 22 22 20 19 17 17 17 16 16 15 15 14 13 13 13 12 12 11 11 10 10 9 9 10 9 9 9 8 7 6 5 4 4 5 4 4 4 4 5 5 4 3 4 5 5 4 3 5 6 7 12 13 13 12 10 8 5 4 2 2 4 8 12 12 11 10 10 10 9 9 8
26 26 27 27 25 25 25 23 22 23 24 23 22 22 22 21 19 18 17 16 15 16 15 14 14 13 12 12 12 12 11 11 10 9 9 8 8 9 9 9 8 7 7 6 5 4 4 4 3 3 4 5 5 4 3 2 3 4 5 4 3 4 5 4 8 12 12 12 10 8 5 3 2 3 5 9 11 12 12 11 10 10 9 9 8
24 24 25 26 25 25 24 23 22 22 23 22 22 22 21 20 19 18 17 15 15 15 14 14 13 12 12 12 11 11 11 11 10 9 8 8 8 8 9 8 8 7 7 6 5 4 4 3 3 3 5 5 5 5 4 3 2 3 4 4 3 4 4 4 6 12 12 11 9 7 5 3 3 4 6 9 11 11 12 12 11 10 10 9 8
22 22 23 24 24 24 23 23 23 22 22 22 22 22 21 20 19 18 17 16 15 14 14 13 12 11 12 11 11 11 11 11 9 8 7 7 8 8 8 7 7 7 6 6 5 5 4 4 4 4 5 5 5 6 5 3 2 1 3 4 3 4 3 4 5 11 12 11 9 7 5 3 3 5 6 9 11 11 12 12 11 11 10 10 9
16 18 20 21 23 24 23 23 23 22 22 21 21 20 20 19 18 18 17 16 15 14 13 12 11 11 10 10 10 10 10 10 9 8 7 7 7 8 8 7 7 7 6 5 5 5 5 5 5 6 7 6 5 4 4 3 1 0 1 3 2 3 4 3 5 10 12 11 8 7 5 4 4 6 7 9 11 12 13 13 12 12 11 10 9
11 13 17 19 22 23 22 23 22 21 21 21 21 20 19 19 18 17 16 15 14 13 12 11 11 11 10 9 10 10 10 9 9 8 7 7 7 8 8 7 7 6 6 5 5 6 5 4 5 7 7 6 5 4 4 3 1 0 0 1 0 2 4 4 5 8 12 10 8 7 5 5 6 7 7 8 11 12 12 12 12 12 11 11 10
15 11 16 21 22 22 22 22 21 21 20 20 20 20 19 18 17 16 15 15 14 13 12 11 10 10 9 9 10 10 10 9 9 8 7 7 7 8 8 7 7 7 6 6 6 6 4 3 4 6 7 7 6 4 4 3 1 1 2 2 2 3 3 5 7 7 11 10 7 7 6 5 6 7 7 7 10 12 12 12 11 11 11 11 11
23 10 12 21 23 22 22 21 21 20 19 19 19 20 19 18 17 16 16 15 14 13 12 11 9 9 9 9 10 10 10 9 8 7 6 7 7 6 7 7 8 7 7 8 7 6 5 4 4 6 6 6 5 4 4 4 4 2 3 3 3 4 4 7 9 8 10 10 7 7 7 6 7 7 7 7 10 12 11 11 11 10 10 10 10
26 14 13 21 24 23 23 22 21 20 19 18 18 19 19 18 17 17 16 15 14 13 12 11 10 9 9 9 10 11 10 8 7 7 7 7 7 6 7 8 8 8 8 8 8 7 6 4 4 5 5 5 5 4 4 4 6 3 2 4 3 4 7 9 10 9 9 10 8 7 7 7 7 7 7 8 10 11 11 11 10 10 10 10 10
28 18 16 20 23 23 23 22 22 20 19 18 18 20 19 18 17 16 15 14 13 12 12 11 11 10 9 8 9 10 9 8 7 7 8 9 9 10 10 11 10 9 8 8 8 8 7 5 5 6 5 5 6 5 5 4 5 5 4 5 3 3 8 11 11 10 10 10 8 7 8 7 7 7 7 8 9 10 11 11 11 10 10 10 10
29 19 17 20 21 22 23 22 21 20 19 19 19 20 20 18 17 15 14 13 12 11 11 11 11 11 10 8 8 9 8 8 8 9 11 12 13 13 14 13 11 11 10 9 10 9 10 9 8 8 7 7 8 8 7 5 5 6 6 7 6 5 7 11 12 11 11 10 8 8 8 8 7 7 8 8 9 10 11 11 12 11 11 11 10
28 19 16 19 20 21 22 21 20 19 19 18 18 19 19 17 15 14 14 13 12 11 10 11 10 10 10 9 9 10 10 10 12 13 13 13 13 13 13 13 12 12 11 11 12 11 11 11 8 8 9 9 9 8 9 6 3 4 6 8 9 7 7 10 12 12 12 11 9 8 9 9 8 7 8 8 9 11 11 11 12 11 11 11 11
29 22 15 19 21 21 21 20 20 19 17 17 17 17 16 15 14 14 14 13 12 11 10 11 10 9 10 11 11 12 13 13 14 14 13 13 12 11 11 11 11 11 11 11 12 11 11 10 8 8 9 9 8 7 7 5 1 0 1 4 7 6 5 9 12 14 14 12 11 10 9 10 10 9 8 8 9 11 11 10 12 10 10 11 11
30 23 14 19 22 21 21 21 20 18 16 16 16 15 15 14 13 12 12 12 12 11 10 11 10 10 10 11 11 12 13 13 13 12 11 10 9 9 10 10 10 10 11 11 11 11 11 10 9 8 9 9 8 7 6 5 2 1 1 1 3 3 3 6 13 16 15 14 12 11 11 11 11 11 9 8 9 11 11 11 12 11 10 9 10
28 23 13 19 25 23 23 22 19 17 16 16 16 15 14 13 11 10 10 10 11 10 9 11 11 10 10 10 11 12 12 13 14 12 9 8 8 10 10 9 10 10 10 11 10 9 10 10 10 9 9 8 7 6 8 6 3 4 2 2 3 2 2 3 13 18 17 16 14 12 12 12 12 12 11 9 9 10 11 11 11 12 11 9 9
26 23 14 19 27 24 24 23 20 18 16 16 15 15 14 12 11 10 9 9 10 9 9 11 11 9 8 7 10 11 11 12 14 13 10 9 9 10 10 9 10 10 10 11 10 9 9 9 10 10 9 8 7 7 8 6 3 3 2 0 3 5 6 7 9 16 16 16 15 14 14 14 13 13 12 10 10 10 11 11 11 12 12 10 9
25 23 15 19 27 25 25 24 20 19 17 16 15 14 14 12 12 10 9 9 9 9 9 10 9 8 6 5 7 8 9 10 11 11 10 11 10 11 11 9 9 10 11 11 9 9 9 10 10 10 10 9 8 8 8 6 3 2 3 3 2 4 5 8 8 9 11 13 17 18 17 16 16 15 13 12 11 11 11 11 11 12 12 10 10
26 25 16 19 27 26 26 25 21 20 18 17 17 17 16 14 14 12 10 9 8 9 9 8 8 7 5 4 5 5 5 6 7 8 7 8 9 10 10 9 8 9 10 10 9 10 10 10 11 11 10 8 9 8 6 5 3 3 4 5 4 4 5 5 9 9 8 10 14 18 18 17 17 16 15 15 14 13 12 12 10 11 11 9 9
29 29 21 21 27 27 26 25 22 21 19 20 20 19 17 16 14 12 11 10 10 10 9 8 7 7 7 7 7 6 5 5 5 6 6 6 6 7 8 7 7 8 9 9 10 11 11 10 10 12 11 9 9 7 6 6 5 3 3 4 5 5 5 5 7 9 10 10 7 10 13 14 15 17 16 15 16 16 15 13 11 10 10 9 9
34 33 28 25 29 29 27 26 23 23 22 22 22 19 17 15 14 12 11 12 13 13 11 11 10 9 8 7 8 8 8 7 6 7 8 8 6 6 6 5 6 7 8 10 10 10 9 9 10 12 12 10 9 7 6 6 5 3 3 4 5 5 6 7 6 8 9 11 10 7 6 8 11 15 17 16 16 17 17 16 14 12 11 10 10
36 34 31 29 30 29 28 26 24 24 23 23 22 19 17 15 14 13 12 13 15 14 13 13 12 11 8 7 8 9 9 8 8 8 8 8 7 7 7 6 5 6 6 8 9 8 8 9 10 11 11 10 9 8 7 7 6 4 4 5 6 5 6 7 5 5 7 8 8 8 5 4 6 11 15 16 16 17 18 18 17 15 12 12 12
32 33 33 31 29 28 27 26 25 25 25 25 24 23 21 20 19 18 15 15 16 15 15 14 14 12 9 8 7 7 8 8 6 6 6 7 9 9 8 7 6 5 5 6 6 6 7 9 9 10 10 7 6 6 6 8 7 5 3 3 5 4 5 7 7 5 4 5 6 4 3 2 2 6 11 14 17 18 18 19 18 17 15 13 13
29 32 32 29 28 27 26 26 25 25 25 25 25 24 23 22 22 20 19 18 18 17 17 15 14 11 9 8 7 7 7 6 5 6 7 8 10 10 9 9 8 7 6 5 5 4 4 6 6 8 9 8 6 5 5 6 5 3 2 0 1 2 3 5 7 8 7 5 5 5 4 2 0 3 7 12 16 19 19 18 18 19 18 17 16
30 30 30 28 27 26 25 26 26 25 24 24 23 23 22 21 20 20 21 20 18 16 15 13 11 10 9 8 7 9 8 6 6 8 10 10 10 10 9 9 9 9 8 7 5 4 3 2 3 4 7 8 7 5 6 6 4 2 1 2 1 1 3 4 4 6 7 7 7 5 4 4 2 2 5 7 12 17 19 17 17 19 19 18 17
30 29 29 28 28 27 27 27 27 26 24 23 21 21 21 20 20 20 20 19 16 14 13 11 11 11 10 7 8 10 10 9 8 9 10 10 9 9 9 8 8 8 7 8 8 7 5 2 1 2 4 7 6 5 6 6 5 4 2 1 0 1 1 3 2 1 2 4 5 4 3 4 4 3 4 5 8 12 16 16 16 17 18 17 18
29 30 30 29 28 28 28 28 28 27 25 24 21 21 22 22 22 22 20 18 17 15 13 13 13 12 10 9 9 11 11 11 11 10 10 10 10 10 9 9 9 8 8 9 10 9 8 5 4 2 3 6 7 6 5 5 7 7 3 2 1 1 2 1 1 1 0 1 2 3 3 3 5 6 6 6 7 9 12 14 14 14 16 16 17
29 30 30 29 28 28 28 27 28 28 26 23 21 21 22 24 25 24 22 21 19 16 16 17 16 13 12 12 12 12 11 10 10 10 10 10 11 10 10 11 11 10 10 10 10 9 9 9 7 4 2 4 7 7 6 5 8 9 6 3 1 0 1 1 1 0 1 1 1 2 2 2 3 5 6 6 6 7 8 9 10 11 13 14 15
27 29 30 29 28 28 27 27 28 27 24 22 21 22 23 24 25 24 22 22 21 18 17 18 16 13 13 12 11 11 10 8 8 9 9 9 10 10 10 10 10 10 9 9 9 9 9 9 8 6 5 4 4 5 6 4 5 8 8 4 2 1 0 1 2 1 1 1 1 0 1 2 2 3 4 5 5 5 5 7 7 7 9 10 12
27 28 29 29 29 29 27 27 28 24 22 23 24 24 25 26 26 24 23 23 22 20 19 18 16 13 12 10 9 9 8 7 8 8 8 9 10 9 9 9 9 8 7 8 9 9 9 9 8 7 6 6 4 4 5 3 1 4 6 3 3 2 1 1 2 2 2 1 2 2 1 2 2 3 4 4 5 6 7 8 8 7 7 6 8
28 29 30 30 30 30 28 27 26 23 23 26 26 26 27 28 27 25 24 23 22 22 21 19 17 15 13 12 10 9 8 7 8 9 9 10 11 10 9 8 9 9 8 9 9 8 9 9 8 8 7 8 7 7 8 6 4 3 4 1 1 2 2 2 2 3 4 2 0 2 3 4 2 1 2 3 4 6 8 8 9 9 7 6 7
28 29 30 30 31 32 31 29 26 23 26 28 27 29 30 28 28 26 25 24 24 24 22 20 19 16 15 14 12 10 9 8 9 9 9 10 11 10 9 9 11 11 11 10 9 8 8 7 7 8 9 10 10 10 10 9 7 6 5 3 3 4 3 4 4 4 4 3 2 1 3 5 3 4 6 4 3 4 4 5 6 5 6 9 9
25 26 28 31 33 33 32 31 28 26 29 31 29 30 30 28 26 26 27 26 27 27 24 22 21 19 18 16 14 12 10 10 10 10 9 10 10 9 8 9 10 11 11 11 10 9 8 7 7 8 9 10 9 9 9 9 9 10 10 8 7 7 6 6 6 6 4 4 3 1 4 5 3 4 8 7 4 4 4 4 3 2 2 3 8
Wind_Direction
163 165 166 165 167 160 150 143 139 138 136 138 138 138 138 137 136 133 131 128 123 119 117 114 113 116 117 115 114 117 118 117 114 110 107 104 102 101 102 101 101 101 101 99 95 95 98 100 100 102 103 105 103 106 110 112 113 110 109 110 110 108 107 106 104 103 98 96 94 91 90 89 89 90 88 83 85 88 87 86 85 82 78 81 79
161 164 165 164 163 154 145 140 138 136 134 136 137 137 137 137 137 134 134 130 126 120 118 117 115 118 120 118 117 121 122 120 117 113 110 107 104 102 104 103 102 101 102 100 99 98 98 101 101 101 100 104 102 102 107 111 114 113 112 111 110 111 109 105 104 102 98 98 97 94 90 91 91 88 87 82 84 88 88 88 86 82 78 82 83
157 162 165 161 158 150 143 138 136 135 134 135 136 137 137 138 137 137 136 132 128 122 120 119 118 120 122 122 120 124 125 123 120 117 114 111 108 107 108 108 107 102 102 102 101 101 100 101 104 103 98 102 101 98 104 110 114 115 112 110 111 110 109 105 102 98 94 95 96 97 94 92 90 86 85 84 84 86 87 87 85 84 80 79 81
155 161 161 157 154 148 142 139 137 135 135 135 136 137 137 139 138 139 137 134 130 124 124 121 120 121 123 124 124 127 128 127 123 121 117 114 112 110 111 113 112 106 104 105 103 103 101 102 106 107 100 101 104 100 106 111 115 116 113 114 114 112 111 105 99 95 92 91 91 96 98 95 88 85 86 86 85 85 86 87 86 86 85 80 77
155 158 158 155 151 147 144 141 138 136 136 137 137 137 138 139 140 140 137 135 132 128 126 123 122 122 124 126 128 131 131 131 127 124 120 118 116 115 116 115 113 107 104 106 106 105 103 102 102 103 99 100 102 102 111 116 117 118 116 117 118 116 114 107 99 93 91 88 86 90 96 98 93 89 88 88 87 86 85 86 87 87 88 83 78
155 156 156 153 151 149 146 143 140 138 139 139 138 138 137 138 140 140 138 136 133 131 129 126 126 127 128 129 132 135 136 134 132 130 125 122 120 118 119 116 113 109 108 110 110 107 107 107 106 105 102 102 100 101 115 121 121 120 118 119 120 120 119 114 104 90 89 87 83 83 88 95 95 93 88 88 89 87 88 88 89 88 87 83 80
155 156 157 154 153 151 149 144 142 141 141 140 138 137 136 136 139 139 139 137 134 134 133 131 130 132 133 133 136 138 139 137 136 134 129 125 122 121 119 115 111 111 113 113 112 110 110 108 108 109 105 106 107 106 117 126 126 123 121 120 123 126 124 126 120 96 94 93 85 82 85 89 89 94 94 90 91 90 91 91 90 89 89 86 83
155 157 157 154 154 154 151 146 144 144 142 138 137 137 136 137 139 139 140 138 136 137 137 136 135 137 138 138 138 139 140 140 139 136 132 129 127 124 119 116 113 116 116 114 115 115 114 109 107 110 111 112 115 115 122 131 130 127 125 124 128 131 132 136 142 126 114 109 96 88 88 85 83 94 98 96 97 96 95 93 92 92 92 90 88
154 157 156 154 154 154 152 147 144 143 139 135 135 136 137 139 138 139 139 139 138 139 140 139 138 140 141 140 140 141 143 143 143 138 134 131 130 128 122 120 121 123 118 114 117 122 121 113 108 106 109 109 108 119 128 135 133 131 129 131 132 134 141 141 147 145 136 133 119 101 90 83 80 91 99 104 105 101 99 98 95 93 92 90 87
147 152 153 152 152 153 150 146 143 138 135 132 133 134 136 137 137 139 139 140 141 142 143 141 141 143 142 141 140 142 143 144 144 140 135 132 133 131 127 125 127 128 124 122 125 135 134 120 111 98 98 91 88 117 134 138 136 135 133 134 135 135 135 128 142 161 156 155 147 118 97 89 86 93 101 104 102 99 100 98 96 93 92 88 84
145 146 147 149 151 152 148 143 139 134 130 129 131 133 134 135 136 138 140 142 142 143 142 141 143 144 142 141 141 142 142 144 144 140 136 136 137 135 135 135 133 136 139 137 138 146 144 126 106 82 88 82 81 113 134 140 139 137 137 137 134 128 112 101 137 163 163 159 150 128 106 100 94 99 105 104 102 99 100 99 97 96 95 93 90
149 149 146 149 151 150 147 141 136 131 128 128 131 132 132 134 136 137 139 141 141 141 141 141 143 142 141 141 141 140 141 142 143 142 138 138 139 140 140 140 138 143 151 150 149 152 149 137 91 66 83 79 82 109 132 143 145 143 142 142 133 122 96 94 135 150 153 153 145 128 112 107 97 101 111 112 105 99 104 104 100 98 98 98 94
147 150 156 155 151 149 146 139 135 130 129 130 131 131 133 135 136 138 139 140 140 141 141 142 140 139 139 139 139 140 141 141 142 140 136 136 136 137 137 136 139 145 154 157 157 155 146 137 75 70 85 90 97 110 134 147 150 148 147 144 132 120 94 96 137 146 144 146 140 124 113 108 102 108 118 114 105 103 107 106 104 106 103 98 94
147 152 163 162 154 149 144 139 135 132 132 132 132 133 135 137 138 139 139 140 141 143 143 142 140 138 138 139 141 143 143 141 140 137 135 135 134 134 134 136 140 140 150 159 154 147 139 116 85 86 97 107 109 107 126 146 151 150 150 143 131 116 91 100 142 152 146 143 136 123 114 106 103 111 117 111 109 110 109 106 105 107 106 104 104
154 157 163 164 156 148 143 140 137 134 134 134 134 135 137 139 139 139 139 142 144 146 146 143 141 140 140 142 145 144 143 142 140 139 137 136 135 134 134 137 141 138 145 157 146 138 130 109 98 98 109 113 107 100 109 137 151 150 151 142 128 106 80 105 148 160 153 143 136 124 112 102 99 109 119 118 116 118 114 112 110 111 113 114 115
157 159 162 164 156 146 142 141 139 137 136 137 137 138 138 139 139 139 140 144 147 148 147 144 142 142 145 145 146 145 144 143 142 141 138 137 136 135 134 135 142 141 143 153 148 135 121 111 107 105 115 114 104 99 99 123 146 149 151 141 124 94 71 109 150 161 159 146 137 127 113 104 104 113 132 132 124 122 119 115 112 115 117 112 111
158 158 161 162 155 147 142 140 140 138 139 139 139 139 138 138 138 140 144 148 149 149 149 147 146 148 150 148 147 146 144 143 141 139 137 138 138 137 138 138 146 150 149 153 153 134 118 112 112 115 122 117 108 105 97 112 139 145 149 143 121 87 70 114 149 157 160 150 140 131 113 103 105 110 140 145 132 125 122 118 114 113 113 108 107
159 159 161 159 154 149 145 142 141 140 141 141 141 141 140 139 139 144 149 151 150 150 152 151 152 153 152 149 149 148 145 143 141 138 137 138 140 142 143 143 149 153 154 152 148 128 119 118 116 127 129 121 117 116 103 105 130 141 150 149 120 88 76 121 154 158 161 155 145 136 116 103 103 109 138 152 137 130 129 126 125 119 117 116 115
162 163 161 160 156 152 149 146 146 144 143 143 142 142 142 142 143 150 154 154 153 154 157 158 158 157 154 153 152 150 147 145 144 143 141 140 142 146 146 145 147 148 147 142 138 123 119 127 126 138 138 126 126 125 113 103 116 129 152 152 108 88 76 118 157 165 167 160 151 139 125 119 119 130 149 157 143 137 139 134 130 126 123 124 122
164 164 161 162 160 156 153 150 150 148 146 145 144 145 146 147 149 155 157 157 159 160 163 163 163 157 152 155 155 153 151 151 152 150 146 145 145 146 144 139 140 139 137 132 128 122 122 134 131 143 151 138 131 130 126 114 109 115 145 151 97 92 76 106 154 170 174 163 154 146 137 134 136 154 159 163 157 151 147 141 137 131 129 128 126
161 163 164 164 161 159 157 155 154 150 149 148 148 151 150 152 155 158 158 162 165 165 166 166 165 159 155 159 160 159 158 158 158 156 151 149 146 143 141 136 134 133 135 135 132 134 138 146 143 148 157 150 139 141 142 137 122 112 139 148 95 99 77 80 151 170 177 166 157 152 145 142 154 172 169 171 171 166 152 144 143 138 136 135 135
159 162 166 165 161 161 161 160 158 155 154 153 154 154 154 156 160 162 161 167 170 169 170 168 169 168 165 168 169 168 165 163 161 162 161 154 147 141 139 136 134 136 138 141 146 153 153 160 169 167 164 163 155 152 158 162 153 120 142 148 96 99 75 43 148 173 181 171 164 158 152 149 168 181 178 177 179 172 155 148 150 146 144 142 141
159 161 167 166 163 164 165 165 162 161 160 158 158 157 158 162 166 167 168 173 176 175 175 172 174 175 172 173 175 175 173 169 165 167 167 158 151 144 141 139 138 141 143 148 156 162 167 177 185 182 176 179 174 166 169 174 177 137 140 143 98 95 92 52 135 177 186 177 169 160 158 163 185 191 187 185 184 173 157 156 158 153 149 145 144
160 162 165 166 167 167 168 169 166 166 165 162 162 162 164 169 172 174 177 179 180 182 181 177 177 177 176 176 175 176 179 176 167 165 167 166 159 148 146 146 145 146 151 158 166 172 178 184 189 190 188 190 193 189 181 172 165 300 136 138 102 99 113 91 134 180 188 181 173 161 163 181 194 197 192 191 188 174 164 166 164 158 154 148 146
159 162 167 170 172 171 170 170 169 171 171 168 166 166 170 175 179 181 185 185 184 189 188 183 180 177 177 177 177 177 180 178 169 170 175 178 171 160 158 161 161 159 162 171 183 187 185 190 197 198 197 194 195 204 191 179 147 329 246 156 200 146 137 132 145 183 192 182 173 165 171 187 197 202 197 198 189 175 171 173 169 166 162 154 149
161 170 178 177 175 172 173 173 171 174 176 174 170 171 176 181 185 186 192 193 193 197 197 195 190 183 179 178 182 183 182 178 174 178 182 181 178 172 171 177 179 176 179 190 198 196 189 200 209 204 205 202 194 195 191 206 254 316 287 239 215 200 176 167 161 179 191 184 174 172 177 187 200 206 203 201 186 175 176 179 175 174 171 162 155
158 169 187 178 174 172 175 175 173 175 176 176 175 177 183 189 191 191 198 201 201 204 204 206 205 197 187 182 186 190 190 184 178 184 185 178 179 182 184 195 195 190 196 201 202 202 198 202 201 195 201 209 209 212 221 251 260 295 293 229 204 221 212 191 178 176 186 185 178 177 180 190 204 207 202 193 181 179 182 182 182 181 177 169 162
150 161 202 182 173 174 175 177 176 176 176 176 180 183 188 193 196 198 202 206 210 212 211 214 217 209 198 193 195 198 199 191 183 189 190 178 180 191 200 209 207 203 206 206 209 211 212 218 221 212 206 219 232 243 263 272 246 244 256 213 212 231 219 203 188 181 188 189 183 181 182 191 205 206 198 190 184 187 188 187 189 188 181 174 168
145 161 207 185 174 177 176 177 177 177 178 179 183 185 188 194 199 203 205 210 216 219 220 220 217 213 210 205 203 203 203 197 190 194 195 188 189 194 201 210 210 210 214 213 218 225 231 240 248 236 223 232 248 255 277 297 255 229 204 201 201 204 210 207 197 190 192 193 188 183 184 192 202 206 205 198 193 194 192 191 194 194 189 182 177
142 160 198 182 176 177 176 179 178 179 180 181 184 184 188 194 201 205 208 216 219 219 220 220 217 218 216 201 195 198 199 198 194 197 199 200 200 194 195 203 207 213 221 223 226 235 243 251 254 244 237 241 252 261 271 292 266 236 226 214 209 206 208 208 206 203 197 193 193 186 185 192 200 206 210 206 197 196 195 193 199 201 197 192 186
142 157 187 181 178 176 177 179 177 181 180 181 183 184 188 196 203 205 208 216 218 215 212 213 215 216 212 198 193 196 198 196 193 198 202 203 205 198 197 205 209 214 223 230 231 237 247 253 253 246 242 242 250 265 268 273 262 240 243 229 225 230 216 208 212 211 203 197 197 196 192 194 200 203 206 209 198 197 202 197 201 205 202 199 192
144 154 181 184 180 177 176 175 178 182 179 180 180 181 187 193 200 203 206 211 211 209 199 199 202 199 202 203 202 204 203 197 193 201 205 202 202 198 200 210 215 218 223 231 232 235 241 241 240 240 238 242 253 260 255 256 265 82 264 231 237 249 226 214 217 211 208 206 200 201 204 198 200 201 202 207 197 199 206 200 203 210 209 204 198
142 152 183 187 181 178 174 174 178 179 176 178 178 179 184 188 193 197 201 203 203 203 192 190 190 184 192 202 206 207 207 203 198 204 209 204 199 196 200 208 212 214 220 226 229 234 239 233 229 230 231 239 250 246 233 239 276 324 31 85 227 254 260 227 219 210 208 212 207 206 209 204 201 200 201 203 198 203 207 201 203 211 218 210 203
143 155 193 192 181 177 174 174 176 177 177 177 177 177 176 179 184 188 192 195 199 201 195 189 186 186 194 202 211 213 209 208 205 207 210 198 184 187 195 205 204 202 212 221 227 235 240 235 230 228 228 233 236 227 220 227 277 287 292 55 104 115 76 195 214 214 211 213 212 210 212 210 206 202 201 201 201 206 207 209 208 206 214 215 208
142 158 199 196 181 177 175 174 175 178 178 177 177 174 170 170 172 176 179 185 191 193 191 187 184 190 199 204 215 218 211 207 206 206 207 194 179 179 189 207 208 200 206 215 225 237 238 236 234 230 226 227 231 228 224 228 258 261 231 155 103 106 93 109 181 209 214 217 216 213 214 216 212 206 205 202 203 206 206 212 213 205 210 216 213
139 158 199 201 181 179 177 174 174 176 177 179 176 168 164 162 160 160 163 176 187 186 184 184 180 181 191 199 205 214 213 209 208 204 200 199 193 189 195 212 216 211 213 215 225 236 234 230 228 226 222 224 235 239 234 231 225 192 175 179 150 131 116 98 121 171 200 216 222 219 216 217 215 210 210 209 206 207 205 209 213 209 213 221 216
143 156 194 203 179 178 179 174 175 177 179 180 174 163 159 157 153 150 151 163 170 170 174 179 172 163 164 165 165 181 197 203 206 198 192 197 199 201 204 208 214 218 218 213 219 224 220 220 220 219 220 223 231 237 232 226 217 194 177 178 169 150 148 111 101 116 148 187 217 224 222 224 224 218 215 216 214 211 209 208 210 212 218 224 217
149 156 184 196 174 172 175 170 171 172 172 174 169 159 153 154 154 151 148 148 149 152 156 159 152 141 137 136 134 135 146 159 165 163 159 162 173 190 200 202 206 214 215 209 212 217 214 215 217 217 218 217 221 227 222 221 220 211 195 187 182 165 164 151 116 110 118 130 161 210 224 232 235 230 225 225 222 217 213 210 208 211 216 221 219
151 156 175 179 165 164 166 163 163 163 162 163 161 152 149 153 157 158 157 147 139 136 137 140 139 138 138 136 130 122 122 125 121 128 138 142 142 154 172 181 186 197 206 203 205 215 215 214 221 222 220 217 219 223 218 225 231 219 222 219 200 184 180 171 141 123 121 118 117 131 182 218 230 232 232 234 231 225 219 214 210 209 211 215 219
150 157 170 169 163 163 162 160 160 158 156 155 153 149 150 151 152 155 159 155 145 137 136 137 134 136 137 134 130 124 122 122 119 123 130 135 135 130 133 138 154 177 185 187 197 208 209 215 225 223 217 216 219 224 224 235 250 242 228 238 227 214 212 200 174 143 136 135 127 115 118 175 218 227 228 230 230 229 226 221 217 214 213 214 219
154 162 167 167 167 168 166 163 161 160 158 156 154 155 152 147 144 145 147 149 147 142 139 138 136 133 131 137 143 136 128 124 127 134 132 129 125 119 115 116 128 147 152 161 183 192 196 209 220 216 206 202 209 218 224 229 241 245 225 231 232 233 241 233 230 227 189 161 161 160 130 118 204 225 223 223 224 228 229 225 223 222 221 218 220
160 165 165 168 170 172 172 167 164 163 162 160 160 162 159 151 145 143 143 142 142 142 137 136 136 132 130 139 155 160 142 123 126 135 138 131 115 108 103 96 98 107 115 128 158 176 187 202 212 210 199 192 199 203 208 215 223 239 231 271 273 258 261 245 239 239 230 209 200 211 207 180 219 230 224 226 227 228 229 227 226 227 227 225 225
163 166 166 170 170 171 172 168 166 164 163 162 161 163 163 158 150 144 145 142 139 140 137 135 134 130 134 134 136 149 142 122 124 126 129 127 113 106 100 92 91 92 92 96 107 125 139 176 203 215 200 189 195 199 197 202 195 172 110 45 345 312 300 274 249 234 228 223 221 223 214 198 198 218 219 222 226 227 227 227 228 230 232 232 232
163 166 168 170 171 173 172 169 168 166 165 165 163 162 161 160 156 148 146 142 137 139 136 134 134 131 135 137 132 141 136 125 127 125 122 119 114 111 101 97 100 95 87 86 84 87 89 95 146 215 209 180 177 193 201 207 203 176 116 74 40 57 320 282 282 252 220 210 214 209 187 174 171 185 190 183 201 218 223 226 229 231 233 235 235
165 168 170 172 174 177 175 172 171 169 168 168 168 168 163 158 152 146 143 137 134 139 137 133 135 131 128 129 134 142 139 129 125 121 117 112 109 108 101 99 104 105 104 100 95 90 87 85 99 127 206 189 177 169 181 208 208 199 168 127 82 53 242 255 45 356 287 156 166 152 147 152 155 165 167 159 168 191 210 220 225 228 230 232 235
169 170 173 175 177 180 178 176 174 172 172 173 175 175 168 161 154 149 145 140 138 143 145 144 140 135 128 125 129 138 141 134 125 121 118 113 109 104 100 100 100 107 114 110 103 98 93 87 84 86 109 189 190 170 164 190 199 203 199 169 130 335 238 196 110 14 347 49 142 150 158 152 149 165 170 170 167 168 187 206 213 222 226 227 232
171 172 174 178 180 183 181 178 176 176 177 179 182 177 170 166 163 160 155 150 149 148 149 148 145 140 136 131 130 136 143 139 130 125 120 117 115 106 99 98 98 106 113 108 100 97 97 90 83 81 79 104 164 159 151 162 187 204 208 214 264 291 202 134 143 150 6 1 355 114 213 237 230 209 183 183 194 192 193 195 197 205 211 213 220
170 172 176 179 183 185 184 181 179 181 182 180 182 180 174 171 168 165 161 157 154 150 148 149 150 152 150 145 139 136 138 138 132 125 118 115 116 113 104 95 93 103 113 109 105 103 103 99 92 87 84 95 108 108 111 107 126 189 193 218 280 256 205 79 94 102 124 130 341 358 348 308 259 241 221 204 207 217 216 211 208 203 200 204 213
172 176 180 182 185 186 186 183 183 184 178 176 178 180 177 173 170 167 162 159 156 153 152 152 155 157 152 148 144 136 128 130 132 126 117 111 112 113 108 93 83 90 103 108 112 114 112 109 103 97 98 104 104 95 92 87 84 128 159 164 50 98 66 49 69 61 74 94 338 329 353 357 355 345 290 245 220 212 215 220 220 218 230 247 235
176 179 182 184 185 187 187 184 186 185 175 173 175 176 175 172 172 169 162 160 160 157 155 156 158 156 150 148 148 144 135 131 133 131 123 117 114 111 104 92 82 84 92 96 103 113 116 117 115 110 110 111 109 104 95 91 89 92 111 124 100 93 64 47 62 57 54 70 75 10 358 3 359 24 24 351 278 240 231 230 224 227 255 260 252
180 180 184 187 187 188 188 184 187 188 179 176 176 175 175 174 174 170 165 164 163 159 158 158 162 162 157 156 156 152 146 138 133 130 130 130 126 119 107 96 89 86 87 87 91 101 108 110 114 116 119 118 117 116 106 100 98 93 96 104 101 96 92 79 75 75 73 70 70 9 352 8 2 19 29 24 9 335 303 288 293 359 13 275 265